Regional Weather Roundup
Issued by NWS

Home | Current Version | Previous Version | Graphics & Text | Print | Product List | Glossary On
Versions: 1 2 3 4 5 6 7 8 9 10 11 12 13 14 15 16 17 18 19 20 21 22 23 24 25 26 27 28 29 30 31 32 33 34 35 36 37 38 39 40 41 42 43 44 45 46 47 48 49 50
000
ASUS43 KLSX 050710
RWRMO

WEATHER SUMMARY FOR MISSOURI
NATIONAL WEATHER SERVICE SPRINGFIELD MO
100 AM CST MON DEC 05 2016

NOTE: "FAIR" INDICATES FEW OR NO CLOUDS BELOW 12,000 FEET WITH NO
       SIGNIFICANT WEATHER AND/OR OBSTRUCTIONS TO VISIBILITY.
       CURRENT SKY AND/OR WEATHER CONDITIONS ARE NOT AVAILABLE FOR
       CHILLICOTHE AND FARMINGTON.

MOZ001>031-035>038-043-044-053-054-050800-
...NORTHERN AND WESTERN MISSOURI...

CITY           SKY/WX    TMP DP  RH WIND       PRES   REMARKS
KANSAS CTY INT CLEAR     31  28  89 S6        29.96F WCI  25
KANSAS C DTWN  CLEAR     32  32 100 CALM      29.98F
LEE`S SUMMIT   CLEAR     36  34  92 S5        29.99F
ST JOSEPH      CLEAR     31  30  96 S3        29.95F FOG
CHILLICOTHE      N/A     27  26  96 S3        30.00S
KIRKSVILLE     FOG       29  28  96 SW3       29.99R VSB 1/4

$$
MOZ066>068-077>081-088>096-101>105-050800-
...SOUTHWEST MISSOURI...

CITY           SKY/WX    TMP DP  RH WIND       PRES   REMARKS
SPRINGFIELD    CLOUDY    31  29  92 S5        30.02S FOG     WCI  26
JOPLIN         CLOUDY    35  35 100 S5        30.03F
BRANSON          N/A    N/A N/A N/A CALM      30.04S

$$
MOZ032>034-039>042-045>050-055>058-069>072-050800-
...CENTRAL MISSOURI...

CITY           SKY/WX    TMP DP  RH WIND       PRES   REMARKS
COLUMBIA       CLEAR     34  33  96 W5        30.01S WCI  30
JEFFERSON CITY FOG       28  27  96 CALM      30.03S VSB 1/2
ROLLA          CLEAR     29  29 100 SE6       30.01S WCI  23
SEDALIA        CLEAR     35  32  88 W3        30.01F
WHITEMAN AFB   CLEAR     32  32 100 CALM      29.99F
WARRENSBURG    CLEAR     32  32 100 CALM      30.00F FOG
OSAGE BEACH    CLOUDY    27  26  96 SE3       30.04R

$$
MOZ051-052-059>065-050800-
...EAST CENTRAL MISSOURI...

CITY           SKY/WX    TMP DP  RH WIND       PRES   REMARKS
ST LOUIS INTL  PTCLDY    35  31  85 CALM      30.04S
SPIRIT OF STL  CLEAR     28  28 100 CALM      30.04S FOG
ST CHARLES     CLEAR     32  32 100 CALM      30.04S FOG

$$
MOZ072>076-082>087-097>100-106>115-050800-
...SOUTH CENTRAL AND SOUTHEAST MISSOURI...

CITY           SKY/WX    TMP DP  RH WIND       PRES   REMARKS
CAPE GIRARDEAU CLOUDY    41  34  76 N5        30.08R
FARMINGTON     PTCLDY    32  30  92 CALM      30.06R
POPLAR BLUFF   CLOUDY    37  37 100 N3        30.07S
WEST PLAINS    CLOUDY    30  29  96 CALM      30.05S FOG

$$




USA.gov is the U.S. government's official web portal to all federal, state and local government web resources and services.